Track STARLINK-1510 now! 10-day predictions STARLINK-1510 is classified as:
1 45784U 20038BG 21017.85632556 .00000779 00000-0 72654-4 0 9993 2 45784 52.9938 342.0698 0001399 76.0334 284.0809 15.05577862 33871